Flag for Canada Weather past 2 weeks in Bathurst, New Brunswick, Canada

21 °F

Passing clouds.

Feels Like: 16 °F
Forecast: 20 / 28 °F
Wind: 3 mph from West

Location: Bathurst Airport

Current Time: Nov 29, 2015 at 1:51:08 AM

Latest Report: Nov 29, 2015 at 1:00 AM

Visibility: 15 mi

Pressure: 30.10 "Hg

Humidity: 86%

Dew point: 18 °F

Location of BathurstLocation

Historic Weather in Bathurst — Graph


Bathurst temperature yesterday

Maximum temperature yesterday: 37 °F (at 12:00 AM)
Minimum temperature yesterday: 23 °F (at 10:00 PM)
Average temperature yesterday: 30 °F

Past Weeks' High & Low Weather Summary

High52 °F (Nov 27, 3:00 PM)100% (Nov 14, 12:00 AM)30.87 "Hg (Nov 14, 12:00 AM)
Low14 °F (Nov 25, 6:00 AM)52% (Nov 17, 12:00 PM)29.29 "Hg (Nov 14, 12:00 AM)
Average34 °F79%30.17 "Hg
* Reported Midnight between Nov 13 and Nov 14 — Midnight between Nov 28 and Nov 29, Bathurst, Weather by CustomWeather, © 2015

Note: Actual official high and low records may vary slightly from our data, if they occured in-between our weather recording intervals... More about our weather records


Bathurst weather history for previous 24 hours

Time TempWeatherWind HumidityBarometerVisibility
12:00 AM
Sun, Nov 29
19 °FClear.No wind93%30.11 "Hg15 mi
11:00 PM
Sat, Nov 28
23 °FClear.2 mph80%30.12 "Hg15 mi
10:00 PM23 °FPassing clouds.7 mph80%30.14 "Hg15 mi
9:00 PM25 °FOvercast.6 mph80%30.15 "Hg15 mi
8:00 PM27 °FPassing clouds.10 mph69%30.16 "Hg15 mi
7:00 PM27 °FOvercast.7 mph69%30.17 "Hg15 mi
6:00 PM28 °FOvercast.7 mph69%30.18 "Hg15 mi
5:00 PM28 °FPassing clouds.7 mph64%30.16 "Hg15 mi
4:00 PM30 °FPartly sunny.7 mph59%30.18 "Hg15 mi
3:00 PM32 °FScattered clouds.5 mph55%30.18 "Hg15 mi
2:00 PM30 °FPartly sunny.5 mph59%30.21 "Hg15 mi
1:00 PM30 °FPartly sunny.2 mph59%30.22 "Hg15 mi
12:00 PM30 °FPartly sunny.3 mph59%30.24 "Hg15 mi
11:00 AM30 °FPartly sunny.5 mph59%30.28 "Hg15 mi
10:00 AM28 °FPartly sunny.7 mph64%30.28 "Hg15 mi
9:00 AM28 °FPartly sunny.6 mph69%30.27 "Hg15 mi
8:00 AM28 °FScattered clouds.6 mph69%30.26 "Hg15 mi
7:00 AM30 °FSnow flurries. Mostly cloudy.5 mph69%30.24 "Hg15 mi
6:00 AM30 °FSnow flurries. Overcast.8 mph75%30.23 "Hg12 mi
5:00 AM32 °FSnow flurries. Overcast.7 mph80%30.20 "Hg15 mi
4:00 AM32 °FOvercast.3 mph87%30.17 "Hg15 mi
3:53 AM32 °FOvercast.5 mph93%30.17 "Hg15 mi
2:00 AM34 °FLight snow. Overcast.7 mph87%30.12 "Hg10 mi
1:00 AM34 °FLight rain. Overcast.8 mph93%30.09 "Hg12 mi
Weather by CustomWeather, © 2015

See weather overviewHow to use our weather pages